[[{"header":{"parameterUnit":"m.s-1","parameterCategory":1,"la1":30.2991,"la2":30.254,"lo1":-89.0895,"lo2":-89.0444,"dy":0.0017,"dx":0.0017,"nx":28,"ny":28,"refTime":"2025-06-21T03:00:00:Z","depth":0,"parameterNumber":2,"parameterNumberName":"U-component_of_WINDS"},"data":[0,0,0,0,0,0,0,0,0,0,0,0,0,0,0,0,0,0,0,0,0,0,0,0,0,0,0,0,0,0,0,0,0,0,0,0,0,0,0,0,0,0,0,0,0,0,0,0,0,0,0,0,0,0,0,0,0,0,-0.2343,-0.2342,0,-0.227,-0.2269,-0.2268,-0.2242,-0.2243,-0.2243,-0.2243,-0.2167,-0.2165,-0.2162,0,0,0,0,0,0,0,0,0,0,0,0,0,-0.2461,-0.2459,-0.2343,-0.2342,-0.2341,-0.227,-0.2269,-0.2268,-0.2242,-0.2243,-0.2243,-0.2243,-0.2167,-0.2165,-0.2162,0,0,0,0,0,0,0,0,0,0,0,0,0,-0.2401,-0.2459,-0.2343,-0.232,-0.2317,-0.227,-0.2269,-0.2267,-0.2242,-0.2243,-0.2243,-0.2243,-0.2168,-0.2165,-0.2162,-0.2132,0,0,-0.2151,-0.215,0,0,0,0,0,0,0,0,-0.2405,-0.2397,-0.2324,-0.2321,-0.2318,-0.2266,-0.2282,-0.2222,-0.2242,-0.227,-0.2243,-0.2244,-0.2199,-0.2193,-0.2179,-0.2128,-0.2125,-0.2151,-0.2149,-0.2147,-0.2146,0,0,0,0,0,0,0,-0.2409,-0.24,-0.2314,-0.2323,-0.2319,-0.2313,-0.2305,-0.2271,-0.2233,-0.2268,-0.2266,-0.2258,-0.2198,-0.2182,-0.2177,-0.2124,-0.2151,-0.2148,-0.2146,-0.2144,-0.2049,-0.2049,0,0,0,0,0,0,-0.2417,-0.2403,-0.2316,-0.2312,-0.2363,-0.2311,-0.2302,-0.2282,-0.2234,-0.2227,-0.2257,-0.2257,-0.2188,-0.2181,-0.2174,-0.2138,-0.2147,-0.2144,-0.2142,-0.205,-0.2049,-0.2049,0,0,0,0,0,0,-0.2419,-0.2409,-0.2319,-0.2357,-0.2345,-0.2308,-0.2286,-0.228,-0.2264,-0.2226,-0.2219,-0.2248,-0.2188,-0.2179,-0.2143,-0.2135,-0.2143,-0.2139,-0.205,-0.205,-0.2049,-0.2064,0,0,0,0,0,0,-0.2423,-0.241,-0.2398,-0.2357,-0.2343,-0.229,-0.2286,-0.2278,-0.2259,-0.2257,-0.2215,-0.2209,-0.2187,-0.2149,-0.214,-0.213,-0.2137,-0.2051,-0.205,-0.2049,-0.2064,-0.2064,-0.2064,0,0,0,0,0,-0.2427,-0.2405,-0.2398,-0.2387,-0.2327,-0.2289,-0.2281,-0.2257,-0.2258,-0.2246,-0.2222,-0.221,-0.2137,-0.2145,-0.2135,-0.2124,-0.2051,-0.205,-0.2049,-0.2064,-0.2064,-0.2064,0,0,0,0,0,0,-0.2445,-0.2399,-0.239,-0.2354,-0.2326,-0.2285,-0.2268,-0.2257,-0.2228,-0.2228,-0.2199,-0.219,-0.2158,-0.2137,-0.2147,-0.2095,-0.2094,-0.2091,-0.2109,-0.2108,-0.2108,-0.2113,-0.2134,0,0,0,0,0,-0.2444,-0.2417,-0.2378,-0.235,-0.2336,-0.2305,-0.2287,-0.2272,-0.2242,-0.2229,-0.2202,-0.2173,-0.2144,-0.2125,-0.2096,-0.2062,-0.2053,-0.2049,-0.2049,-0.2049,-0.2047,-0.203,-0.2028,-0.2045,-0.2045,-0.2045,0,0,-0.2443,-0.2415,-0.2399,-0.2353,-0.2329,-0.2302,-0.2295,-0.2266,-0.2246,-0.2225,-0.219,-0.217,-0.2135,-0.2102,-0.2085,-0.2084,-0.204,-0.2048,-0.2048,-0.2046,-0.2028,-0.2027,-0.2025,-0.2044,-0.2045,-0.2045,0,0,-0.2427,-0.2402,-0.2377,-0.2354,-0.2319,-0.2299,-0.2293,-0.2255,-0.224,-0.2206,-0.219,-0.2166,-0.2116,-0.2093,-0.2074,-0.2054,-0.2042,-0.2045,-0.2044,-0.2027,-0.2026,-0.2025,-0.2018,-0.2016,-0.2043,-0.2043,-0.2043,0,-0.243,-0.2388,-0.2365,-0.2338,-0.2319,-0.23,-0.2274,-0.2253,-0.221,-0.2198,-0.2197,-0.2136,-0.2111,-0.2072,-0.2068,-0.2053,-0.2046,-0.2049,-0.2028,-0.2026,-0.2025,-0.2019,-0.2016,-0.2043,-0.2043,-0.2043,-0.2043,0,-0.2394,-0.2366,-0.235,-0.231,-0.2289,-0.2263,-0.2236,-0.2218,-0.2206,-0.2186,-0.2152,-0.2123,-0.2088,-0.2078,-0.2065,-0.2039,-0.2039,-0.2034,-0.2032,-0.2024,-0.2018,-0.2015,-0.2044,-0.2044,-0.2044,-0.2044,0,0,-0.2385,-0.2335,-0.2329,-0.2312,-0.2274,-0.2252,-0.2226,-0.2193,-0.2179,-0.2151,-0.2129,-0.2089,-0.2084,-0.2064,-0.2048,-0.2034,-0.2021,-0.203,-0.2029,-0.203,-0.1992,-0.1997,-0.1994,-0.2014,-0.2013,-0.2013,-0.1996,0,-0.2364,-0.2317,-0.2296,-0.2259,-0.2233,-0.2217,-0.2194,-0.2169,-0.2151,-0.2127,-0.2107,-0.2079,-0.2075,-0.2063,-0.2048,-0.2026,-0.2013,-0.2027,-0.1994,-0.1993,-0.2003,-0.1991,-0.1994,-0.1979,-0.1993,-0.1992,-0.1992,0,-0.2333,-0.2307,-0.2267,-0.2234,-0.2222,-0.2202,-0.2172,-0.215,-0.2121,-0.2109,-0.2088,-0.2074,-0.2047,-0.2049,-0.2012,-0.2022,-0.2008,-0.1995,-0.1994,-0.199,-0.1992,-0.1986,-0.1973,-0.1971,-0.1988,-0.1988,-0.1988,0,-0.2332,-0.2286,-0.2257,-0.2242,-0.2203,-0.219,-0.2173,-0.2145,-0.2127,-0.2101,-0.209,-0.2061,-0.2045,-0.2024,-0.2002,-0.2005,-0.1968,-0.1968,-0.1958,-0.1959,-0.195,-0.1951,-0.1935,-0.1941,-0.1941,-0.1941,-0.1941,0,-0.2311,-0.2288,-0.2256,-0.2238,-0.2212,-0.2189,-0.2164,-0.2146,-0.2122,-0.2101,-0.2084,-0.2065,-0.2038,-0.2016,-0.1999,-0.1972,-0.1965,-0.1955,-0.1951,-0.1956,-0.1958,-0.1946,-0.1947,-0.1941,-0.1941,-0.1941,-0.1941,0,-0.2305,-0.2282,-0.2249,-0.2216,-0.2207,-0.2189,-0.216,-0.2143,-0.2125,-0.2099,-0.2091,-0.2063,-0.2036,-0.2014,-0.1977,-0.1966,-0.1939,-0.1934,-0.1949,-0.1946,-0.1939,-0.194,-0.1915,-0.1911,-0.192,-0.192,-0.1919,0,-0.2293,-0.2274,-0.2239,-0.2225,-0.2208,-0.2184,-0.2167,-0.2145,-0.2128,-0.2096,-0.2082,-0.2055,-0.2031,-0.1989,-0.1966,-0.1939,-0.1933,-0.1926,-0.1929,-0.1936,-0.1934,-0.1935,-0.1934,-0.1926,-0.1926,-0.1926,-0.1926,0,-0.2275,-0.2265,-0.2241,-0.2214,-0.2194,-0.2171,-0.2148,-0.2137,-0.2111,-0.2093,-0.2066,-0.2048,-0.2012,-0.1985,-0.1957,-0.194,-0.1929,-0.1926,-0.1922,-0.1927,-0.1937,-0.1933,-0.1949,-0.1926,-0.1926,-0.1926,-0.1926,-0.1926,-0.2265,-0.2249,-0.2223,-0.2197,-0.2178,-0.2157,-0.214,-0.2121,-0.2098,-0.2068,-0.2056,-0.2029,-0.2004,-0.1964,-0.1947,-0.1926,-0.1925,-0.1919,-0.1918,-0.1917,-0.1918,-0.1941,-0.1921,-0.1921,-0.1921,-0.1921,-0.1921,0,-0.2247,-0.223,-0.2206,-0.2175,-0.2156,-0.2149,-0.2123,-0.2108,-0.2084,-0.2061,-0.2039,-0.2009,-0.1984,-0.196,-0.1933,-0.1921,-0.1916,-0.1915,-0.1915,-0.1912,-0.1921,-0.1927,-0.192,-0.192,-0.192,-0.192,-0.192,-0.192,-0.2235,-0.2208,-0.2196,-0.216,-0.2143,-0.2116,-0.2103,-0.2084,-0.2066,-0.2034,-0.2013,-0.1997,-0.1975,-0.1947,-0.1924,-0.1918,-0.1909,-0.1909,-0.1902,-0.1911,-0.1911,-0.1911,-0.1917,-0.1908,-0.1908,-0.1895,-0.1895,-0.1894]},{"header":{"parameterUnit":"m.s-1","parameterCategory":1,"la1":30.2991,"la2":30.254,"lo1":-89.0895,"lo2":-89.0444,"dy":0.0017,"dx":0.0017,"nx":28,"ny":28,"refTime":"2025-06-21T03:00:00:Z","depth":0,"parameterNumber":3,"parameterNumberName":"V-component_of_WINDS"},"data":[0,0,0,0,0,0,0,0,0,0,0,0,0,0,0,0,0,0,0,0,0,0,0,0,0,0,0,0,0,0,0,0,0,0,0,0,0,0,0,0,0,0,0,0,0,0,0,0,0,0,0,0,0,0,0,0,0,0,3.6738,3.6737,0,3.6663,3.6663,3.6662,3.6659,3.666,3.6661,3.6662,3.6577,3.6573,3.657,0,0,0,0,0,0,0,0,0,0,0,0,0,3.6871,3.6868,3.6738,3.6737,3.6736,3.6664,3.6662,3.6661,3.6659,3.666,3.6661,3.6662,3.6578,3.6574,3.657,0,0,0,0,0,0,0,0,0,0,0,0,0,3.6806,3.6867,3.6738,3.6726,3.6725,3.6664,3.6662,3.6661,3.6659,3.666,3.6661,3.6663,3.6579,3.6574,3.657,3.6513,0,0,3.6555,3.6553,0,0,0,0,0,0,0,0,3.681,3.6801,3.6729,3.6727,3.6725,3.6672,3.6678,3.6611,3.6658,3.6683,3.6662,3.6663,3.6607,3.66,3.6582,3.6509,3.6505,3.6555,3.6552,3.655,3.6549,0,0,0,0,0,0,0,3.6814,3.6804,3.6708,3.6728,3.6725,3.6722,3.6715,3.6665,3.6638,3.6681,3.6681,3.6673,3.6606,3.6587,3.658,3.6504,3.6555,3.6551,3.6548,3.6546,3.6379,3.6377,0,0,0,0,0,0,3.6822,3.6808,3.6711,3.6706,3.6772,3.6719,3.671,3.6688,3.6638,3.6632,3.6672,3.6673,3.6594,3.6586,3.6577,3.6507,3.655,3.6546,3.6543,3.638,3.6378,3.6377,0,0,0,0,0,0,3.6825,3.6813,3.6714,3.6757,3.6744,3.6715,3.669,3.6685,3.6667,3.6631,3.6625,3.6658,3.6595,3.6584,3.6529,3.6504,3.6543,3.6539,3.6382,3.638,3.6378,3.6366,0,0,0,0,0,0,3.6829,3.6815,3.6794,3.6757,3.6742,3.6669,3.6688,3.6683,3.666,3.6661,3.6617,3.6611,3.6595,3.6536,3.6525,3.6498,3.6535,3.6384,3.6381,3.6378,3.6368,3.6363,3.6359,0,0,0,0,0,3.6834,3.6792,3.6793,3.6782,3.6716,3.6668,3.6659,3.6644,3.6658,3.6636,3.6613,3.6612,3.6509,3.6531,3.6517,3.6489,3.6386,3.6382,3.6379,3.637,3.6364,3.6359,0,0,0,0,0,0,3.6824,3.6787,3.6788,3.6734,3.6704,3.6667,3.6639,3.6638,3.6602,3.6604,3.6585,3.6575,3.6521,3.65,3.6524,3.6431,3.6449,3.6442,3.6447,3.6441,3.6436,3.6441,3.6532,0,0,0,0,0,3.6817,3.6783,3.6751,3.6706,3.6692,3.6668,3.6646,3.6638,3.6606,3.6592,3.6565,3.6532,3.6491,3.6465,3.6426,3.6366,3.6355,3.634,3.6335,3.6331,3.6325,3.629,3.6283,3.6365,3.6365,3.6365,0,0,3.6798,3.6774,3.6753,3.6703,3.668,3.6643,3.6657,3.6617,3.6589,3.6585,3.6532,3.6512,3.6472,3.6415,3.6388,3.6395,3.6301,3.6327,3.6324,3.632,3.6286,3.6278,3.6271,3.6362,3.6363,3.6363,0,0,3.6747,3.6726,3.6686,3.6663,3.6628,3.6613,3.6604,3.6568,3.6555,3.6502,3.6499,3.6463,3.6395,3.6367,3.6344,3.6284,3.6281,3.6272,3.6246,3.6212,3.6206,3.62,3.6177,3.6169,3.6266,3.6266,3.6266,0,3.6728,3.6675,3.6665,3.6626,3.6603,3.6602,3.656,3.6537,3.6489,3.6472,3.6483,3.6398,3.6371,3.6306,3.6292,3.6274,3.626,3.6275,3.6208,3.6202,3.6197,3.6174,3.6166,3.6265,3.6265,3.6265,3.6265,0,3.6653,3.6616,3.6588,3.6546,3.652,3.648,3.6461,3.6436,3.643,3.6413,3.6359,3.6328,3.6283,3.6267,3.626,3.6201,3.6207,3.6213,3.6229,3.6188,3.6166,3.6158,3.6263,3.6264,3.6264,3.6264,0,0,3.6591,3.6547,3.6536,3.6517,3.6479,3.6449,3.6408,3.6367,3.6344,3.6312,3.6275,3.6219,3.6225,3.6198,3.6188,3.6159,3.6112,3.6169,3.6167,3.6158,3.6043,3.6037,3.6027,3.6111,3.6109,3.6108,3.6045,0,3.6535,3.6465,3.6455,3.6391,3.6356,3.6355,3.6319,3.629,3.6274,3.6239,3.622,3.618,3.6191,3.6175,3.6147,3.6124,3.6088,3.6128,3.6073,3.6072,3.6081,3.6016,3.601,3.5952,3.6037,3.6036,3.6035,0,3.6458,3.6428,3.6362,3.6329,3.6314,3.6282,3.6243,3.6212,3.6179,3.6169,3.6141,3.6134,3.6089,3.611,3.6046,3.6073,3.6051,3.6036,3.6033,3.6025,3.6049,3.6005,3.5934,3.5925,3.6022,3.6023,3.6024,0,3.6418,3.636,3.6313,3.6297,3.6258,3.6235,3.6218,3.6187,3.6163,3.6128,3.6112,3.6072,3.6049,3.6017,3.5999,3.6016,3.5935,3.5955,3.5923,3.5923,3.5904,3.5905,3.5826,3.5893,3.5893,3.5893,3.5893,0,3.6354,3.6313,3.6295,3.6265,3.6219,3.6208,3.6161,3.6143,3.6116,3.6081,3.6078,3.6044,3.6024,3.5987,3.5973,3.5921,3.5911,3.59,3.5896,3.5899,3.59,3.5882,3.5885,3.5891,3.5891,3.5892,3.5892,0,3.63,3.6286,3.6235,3.6204,3.6195,3.6162,3.6134,3.6104,3.6089,3.6045,3.6034,3.6009,3.5965,3.5946,3.5891,3.5881,3.5822,3.5822,3.5834,3.5832,3.5801,3.5803,3.5705,3.5691,3.5769,3.5769,3.5768,0,3.626,3.6229,3.6195,3.6174,3.6156,3.6121,3.6097,3.6084,3.6059,3.602,3.5994,3.5952,3.5917,3.5848,3.5823,3.5781,3.5778,3.5747,3.5772,3.5776,3.5775,3.5777,3.5773,3.5742,3.5741,3.574,3.574,0,3.6188,3.6184,3.6151,3.6117,3.6089,3.606,3.6032,3.6013,3.5996,3.5967,3.5925,3.5899,3.5845,3.5801,3.5759,3.5737,3.5734,3.5733,3.5723,3.5724,3.5732,3.5726,3.5819,3.5734,3.5735,3.5735,3.5736,3.5736,3.6138,3.6111,3.6083,3.6047,3.6025,3.5999,3.597,3.5952,3.5918,3.5875,3.5869,3.5823,3.579,3.5733,3.571,3.5673,3.5679,3.5665,3.5661,3.5658,3.5655,3.5741,3.5665,3.5665,3.5665,3.5665,3.5665,0,3.6065,3.6049,3.6016,3.5978,3.5949,3.5954,3.5922,3.5897,3.5858,3.5829,3.5796,3.5746,3.5705,3.5678,3.5635,3.561,3.5608,3.5599,3.5599,3.5594,3.5652,3.5664,3.5602,3.5602,3.5602,3.5602,3.5602,3.5602,3.6024,3.5977,3.5969,3.5911,3.5893,3.5851,3.5833,3.5808,3.5785,3.5731,3.5698,3.5682,3.5653,3.5609,3.557,3.5563,3.5546,3.5537,3.553,3.5584,3.559,3.5596,3.5608,3.5534,3.5534,3.5475,3.5474,3.5474]}]]